CZ-4C DEB, 43263

Orbit data source: Space-Track

CZ-4C DEB, 43263 is space debris in SSO originally from a launch on Sat, 31 Mar 2018 UTC launched from the Taiyaun Space Center, China (TSC). Debris objects in space refer to the collection of defunct objects orbiting the Earth. Examples of debris include non-operational satellites, rocket bodies, and fragments generated from explosions, collisions, or faulty payload assembly.

Loading next visibility...
Identifier
43263, 2018-031E
Orbit
SSO
Country
Flag of CNCN / PRC
Related business
Manufacturer
Unknown
Mission
Spacecraft
Bus & Motor
Unknown
Mass
Unknown
Launch date (UTC)
2018-03-31 (7 years ago)
Launch vehicle
Unknown
Launch site
Taiyaun Space Center, China (TSC)
Object type
Payload
Rocket body
Debris
Shape & HBR
Unknown
Radar Cross Section
Small (<0.1 m²)

Expand to show TLE details & history
Last TLE update: 23 hours ago

TLE from 23 hours ago
0 CZ-4C DEB
1 43263U 18031E   25259.99778342  .00002400  00000-0  32869-3 0  9990
2 43263  97.6972 270.3050 0040688 148.8238 211.5399 14.78795249400962
Epoch: 2025-09-16T23:56Z
TLE epoch observation values (Epoch: 2025-09-16T23:56:48.487Z)
Latitude
-0.00011°
Longitude
-85.07707°
Altitude
660.506 km
Speed
7.514 km/s
True Right ascension
18h 01m 13s
True Declination
0° 00' 00"
Sunlit
Object was in daylight at epoch
Visualization orbit readout
Latitude
Unknown
Longitude
Unknown
Altitude
Unknown
Speed
Unknown
Apparent Right ascension
Unknown
Apparent Declination
Unknown
Sunlit
N/A
Visualization observer readout
Local Sidereal Time
16:12:30
Azimuth
Unknown
Elevation
Unknown
Doppler factor
Unknown
Orbital elements
Apogee altitude
658.678 km
Perigee altitude
601.648 km
Semi-major axis
7,008.3 km
Eccentricity
0.00407
Inclination
97.6972°
RAAN
270.305°
Arg. of periapsis
148.8238°
True anomaly
211.29706°
Mean anomaly
211.5399°
Eccentric anomaly
211.41838°
Mean motion
3.69934 °/min
Orbital period
97.31 mins
BSTAR
0.00032869
Loading maneuver chart data...
Computing Atmospheric mass density...
Loading historical data...
Loading historical data...
Loading historical data...
Loading historical data...
Loading historical data...
Loading historical data...
Loading historical data...

Documentation

Showing up to 5 results
|